SCP
0 0 0 0 0 0 0 0 0 0 0 0 0 0 0 0 0 0 0 0 0 0 0 0 0 0 0 0 0 0 0 0 0 0 0 0 0 0 0 0 0 0 0
0 0 0 0 0 0 0 0 0 0 0 0 0 0 0 0 0 0 0 0 0 0 0 0 0 0 0 0 0 0 0 0 0 0 0 0 0 0 0 0 0 0 0
0 0 0 0 0 0 0 0 0 0 0 0 0 0 0 0 0 0 0 0 0 0 0 0 0 0 0 0 0 0 0 0 0 0 0 0 0 0 0 0 0 0 0
0 0 0 0 0 0 0 0 0 0 0 0 0 0 0 0 0 0 0 0 0 0 0 0 0 0 0 0 0 0 0 0 0 0 0 0 0 0 0 0 0 0 0
0 0 0 0 0 0 0 0 0 0 0 0 0 0 0 0 0 0 0 0 0 0 0 0 0 0 0 0 0 0 0 0 0 0 0 0 0 0 0 0 0 0 0
0 0 0 0 0 0 0 0 0 0 0 0 0 0 0 0 0 0 0 0 0 0 0 0 0 0 0 0 0 0 0 0 0 0 0 0 0 0 0 0 0 0 0
0 0 0 0 0 0 0 0 0 0 0 0 0 0 0 0 0 0 0 0 0 0 0 0 0 0 0 0 0 0 0 0 0 0 0 0 0 0 0 0 0 0 0
0 0 0 0 0 0 0 0 0 0 0 0 0 0 0 0 0 0 0 0 0 0 0 0 0 0 0 0 0 0 0 0 0 0 0 0 0 0 0 0 0 0 0
0 0 0 0 0 0 0 0 0 0 0 0 0 0 0 0 0 0 0 0 0 0 0 0 0 0 0 0 0 0 0 0 0 0 0 0 0 0 0 0 0 0 0
0 0 0 0 0 0 0 0 0 0 0 0 0 0 0 0 0 0 0 0 0 0 0 0 0 0 0 0 0 0 0 0 0 0 0 0 0 0 0 0 0 0 0
0 0 0 0 0 0 0 0 0 0 0 0 0 0 0 0 0 0 0 0 0 0 0 0 0 0 0 0 0 0 0 0 0 0 0 0 0 0 0 0 0 0 0
0 0 0 0 0 0 0 0 0 0 0 0 0 0 0 0 0 0 0 0 0 0 0 0 0 0 0 0 0 0 0 0 0 0 0 0 0 0 0 0 0 0 0
0 0 0 0 0 0 0 0 0 0 0 0 0 0 0 0 0 0 0 0 0 0 0 0 0 0 0 0 0 0 0 0 0 0 0 0 0 0 0 0 0 0 0
0 0 0 0 0 0 0 0 0 0 0 0 0 0 0 0 0 0 0 0 0 0 0 0 0 0 0 0 0 0 0 0 0 0 0 0 0 0 0 0 0 0 0
0 0 0 0 0 0 0 0 0 0 0 0 0 0 0 0 0 0 0 0 0 0 0 0 0 0 0 0 0 0 0 0 0 0 0 0 0 0 0 0 0 0 0
0 0 0 0 0 0 0 0 0 0 0 0 0 0 0 0 0 0 0 0 0 0 0 0 0 0 0 0 0 0 0 0 0 0 0 0 0 0 0 0 0 0 0
0 0 0 0 0 0 0 0 0 0 0 0 0 0 0 0 0 0 0 0 0 0 0 0 0 0 0 0 0 0 0 0 0 0 0 0 0 0 0 0 0 0 0
0 0 0 0 0 0 0 0 0 0 0 0 0 0 0 0 0 0 0 0 0 0 0 0 0 0 0 0 0 0 0 0 0 0 0 0 0 0 0 0 0 0 0
0 0 0 0 0 0 0 0 0 0 0 0 0 0 0 0 0 0 0 0 0 0 0 0 0 0 0 0 0 0 0 0 0 0 0 0 0 0 0 0 0 0 0
0 0 0 0 0 0 0 0 0 0 0 0 0 0 0 0 0 0 0 0 0 0 0 0 0 0 0 0 0 0 0 0 0 0 0 0 0 0 0 0 0 0 0
0 0 0 0 0 0 0 0 0 0 0 0 0 0 0 0 0 0 0 0 0 0 0 0 0 0 0 0 0 0 0 0 0 0 0 0 0 0 0 0 0 0 0
0 0 0 0 0 0 0 0 0 0 0 0 0 0 0 0 0 0 0 0 0 0 0 0 0 0 0 0 0 0 0 0 0 0 0 0 0 0 0 0 0 0 0
0 0 0 0 0 0 0 0 0 0 0 0 0 0 0 0 0 0 0 0 0 0 0 0 0 0 0 0 0 0 0 0 0 0 0 0 0 0 0 0 0 0 0
0 0 0 0 0 0 0 0 0 0 0 0 0 0 0 0 0 0 0 0 0 0 0 0 0 0 0 0 0 0 0 0 0 0 0 0 0 0 0 0 0 0 0
0 0 0 0 0 0 0 0 0 0 0 0 0 0 0 0 0 0 0 0 0 0 0 0 0 0 0 0 0 0 0 0 0 0 0 0 0 0 0 0 0 0 0
0 0 0 0 0 0 0 0 0 0 0 0 0 0 0 0 0 0 0 0 0 0 0 0 0 0 0 0 0 0 0 0 0 0 0 0 0 0 0 0 0 0 0
Wind_Speed
8 9 10 10 10 10 10 10 10 11 11 10 10 10 11 11 12 12 12 12 12 11 11 10 10 10 10 10 10 9 9 9 9 9 10 10 10 10 10 9 8 7 10
10 10 11 11 10 10 10 10 11 11 11 11 10 10 11 11 11 12 11 11 11 11 10 10 10 9 9 9 9 8 8 7 6 6 8 9 10 10 11 11 10 6 9
11 10 10 11 11 11 10 11 11 11 11 11 10 10 11 11 11 11 10 11 10 10 10 9 9 9 9 9 8 7 7 6 5 4 4 4 6 10 10 10 10 9 9
11 10 10 11 11 11 11 11 11 11 11 10 11 10 11 11 11 10 10 10 10 10 10 9 8 9 9 9 8 7 6 5 5 4 3 5 6 10 11 10 10 9 8
11 10 10 11 11 11 11 11 11 11 11 11 11 11 11 11 11 10 10 10 10 9 9 9 8 8 8 8 7 6 6 6 6 5 5 6 5 10 11 10 10 9 8
11 10 10 11 11 11 11 11 11 11 11 11 11 11 10 10 11 10 10 10 10 9 9 9 8 8 7 7 6 6 7 7 5 4 5 5 5 9 10 10 9 9 8
10 10 10 11 11 11 11 10 10 10 10 11 10 10 10 10 10 10 10 10 9 9 9 8 8 8 7 7 6 6 7 7 2 3 5 6 6 9 10 9 9 9 9
10 10 9 11 11 11 10 10 11 10 10 10 10 9 9 9 10 10 9 8 8 8 8 8 7 7 6 6 5 5 6 7 4 6 6 6 8 9 9 9 9 9 9
9 9 8 8 9 10 10 10 10 10 10 9 8 8 8 8 9 9 8 7 7 7 7 7 6 6 5 5 4 5 6 7 5 4 8 5 8 9 8 8 8 8 8
7 7 7 7 8 8 7 9 10 9 8 7 7 6 6 7 8 8 7 6 6 6 6 6 5 5 4 2 2 3 5 5 4 6 5 5 9 8 8 8 8 8 8
6 6 6 7 6 6 7 8 7 8 7 6 5 6 5 3 5 5 7 6 5 4 4 4 4 4 2 1 1 3 3 1 5 6 5 8 10 9 8 8 8 8 8
5 5 5 5 6 6 5 5 3 4 4 4 3 4 3 2 3 5 6 6 5 4 3 3 4 4 3 2 1 1 1 3 5 5 5 10 10 10 9 8 8 8 7
5 4 4 4 5 5 3 3 2 1 1 2 2 3 2 3 3 3 3 3 3 3 2 3 3 3 1 1 1 2 3 4 4 5 5 10 11 10 10 8 8 8 7
5 4 3 4 4 4 4 2 2 1 1 1 1 2 2 1 1 2 2 2 2 1 1 1 0 1 2 3 4 4 5 4 4 4 5 10 11 10 10 9 8 8 7
5 4 3 3 4 4 3 1 3 2 1 2 1 1 2 1 2 1 2 1 1 1 1 1 1 3 4 4 4 5 4 4 5 5 4 9 10 10 10 10 10 9 8
6 5 3 2 3 4 3 2 3 2 1 2 1 1 2 2 2 1 2 2 2 1 1 2 3 3 3 3 3 4 4 4 4 4 4 5 9 9 10 11 10 10 10
6 5 4 3 3 3 3 2 3 1 2 2 0 1 3 3 2 2 2 2 1 2 2 3 3 3 2 3 3 4 4 4 3 3 3 3 3 7 9 10 10 10 10
6 5 4 3 4 4 2 2 2 2 2 2 1 2 2 3 4 2 2 2 2 2 2 2 2 2 2 2 2 2 2 2 3 3 2 2 2 3 6 9 10 10 10
6 6 5 3 4 4 3 2 2 3 2 2 2 2 2 2 3 3 2 2 3 2 2 2 2 2 2 1 1 2 2 2 2 3 3 3 2 3 3 5 8 9 10
6 6 5 4 3 3 2 2 2 3 2 2 2 2 2 2 3 3 1 2 3 2 2 2 2 2 1 1 2 3 2 2 3 3 3 3 3 4 3 4 3 5 9
6 7 6 5 4 3 2 2 2 1 1 2 1 1 1 1 2 2 2 3 3 2 2 3 2 2 1 1 2 2 1 2 2 2 2 2 3 3 3 3 3 3 4
6 7 7 6 5 4 2 2 2 2 1 1 1 2 2 2 2 2 3 2 3 3 3 3 2 2 1 1 1 1 1 2 2 2 1 2 2 2 3 4 4 4 3
7 6 7 7 6 5 4 2 2 2 1 2 2 2 2 2 3 3 2 2 2 3 2 1 2 2 1 2 2 1 1 0 1 1 2 2 2 3 3 3 5 4 5
7 7 7 7 7 6 6 4 3 2 2 2 2 1 1 2 3 2 2 2 3 2 2 1 2 1 2 1 2 1 1 2 1 0 2 1 2 3 3 4 4 5 5
6 5 5 6 6 6 6 5 3 3 2 2 2 2 2 2 2 2 2 2 2 2 3 3 2 2 1 1 1 1 2 1 1 1 0 1 1 2 2 3 3 3 4
6 5 4 5 5 5 6 6 4 4 3 3 3 2 2 2 1 1 1 2 2 2 3 2 2 2 2 2 2 1 1 1 1 1 1 0 1 1 2 2 2 2 3
Wind_Direction
99 100 99 94 87 84 84 86 92 95 92 90 89 86 84 81 79 81 83 82 80 78 77 75 71 69 68 66 65 65 67 68 69 72 72 71 68 64 60 60 71 76 82
107 106 102 98 90 86 86 88 91 93 93 91 90 89 88 85 82 82 82 82 82 80 79 75 71 70 68 65 64 64 64 64 64 71 79 74 70 66 62 59 63 74 79
109 110 104 97 91 88 88 91 92 92 92 92 91 91 90 88 85 83 82 82 82 80 77 74 73 71 69 66 63 60 57 52 46 55 73 84 77 67 64 63 66 72 78
106 106 100 100 93 89 87 89 91 91 91 90 91 92 91 89 86 84 81 82 81 79 76 73 74 72 68 62 58 51 42 29 27 39 58 72 69 70 65 62 63 67 71
101 100 103 101 97 92 89 90 92 92 91 90 91 91 90 90 89 86 81 79 78 76 73 72 72 71 69 62 53 39 26 10 10 49 68 71 67 70 66 63 62 66 69
104 103 108 104 100 97 92 92 92 93 92 90 90 91 90 90 89 87 81 79 77 75 74 73 71 70 66 60 47 27 14 6 20 61 71 74 72 69 67 64 62 64 66
109 109 113 111 106 103 97 95 95 94 94 93 91 90 91 91 89 84 81 80 79 76 74 73 72 72 67 59 44 22 7 354 44 77 71 70 71 71 68 64 61 61 62
112 113 115 116 111 107 104 106 102 98 96 95 96 97 97 96 92 88 83 82 82 79 76 76 75 76 71 60 41 17 3 2 58 75 78 72 73 72 69 66 64 61 61
114 119 122 124 117 112 111 113 110 106 104 104 107 109 110 110 105 98 90 85 84 82 80 80 81 81 75 62 36 10 3 6 24 56 72 65 67 70 69 67 64 64 61
122 122 128 133 129 126 118 118 119 119 120 124 126 129 129 131 123 116 103 91 90 88 89 91 94 97 92 72 16 356 352 0 53 61 61 62 63 64 63 63 63 63 59
111 116 122 120 119 123 128 130 135 138 145 151 159 170 163 165 147 130 108 115 111 114 117 120 125 135 151 207 289 325 342 63 75 71 55 60 63 61 59 60 62 62 58
108 106 105 110 117 116 119 134 147 144 160 182 168 175 182 146 111 116 133 146 155 158 166 174 186 201 217 221 234 316 26 59 72 76 60 61 63 61 60 60 61 59 56
115 105 105 111 109 109 109 115 106 111 147 162 149 140 122 109 130 137 154 165 183 183 200 182 209 230 206 108 87 87 67 59 68 73 61 62 64 60 57 57 57 56 53
113 108 105 113 113 118 111 104 123 127 135 109 120 117 106 111 123 123 131 168 170 174 156 148 161 51 60 67 58 62 64 70 79 85 71 68 63 59 56 54 55 53 51
121 128 115 109 107 100 96 129 119 109 102 97 73 96 105 99 96 100 97 78 84 84 94 64 54 53 50 52 54 63 61 66 79 83 74 72 66 58 54 52 51 50 55
141 135 120 116 111 114 131 132 104 105 120 107 98 156 125 115 106 103 98 67 54 46 45 63 73 66 58 55 52 62 65 62 79 94 103 78 71 65 56 52 50 49 52
148 142 143 144 128 115 109 102 110 138 115 99 63 86 99 99 96 75 84 90 78 50 43 46 63 65 75 70 59 60 61 61 72 88 102 113 89 70 64 57 52 52 52
144 136 137 140 127 107 96 99 108 87 80 86 57 32 58 82 89 71 64 74 77 67 62 63 65 59 55 62 66 60 69 66 58 60 80 97 107 94 75 68 60 56 53
143 136 138 132 112 100 88 77 72 76 69 71 64 38 31 57 87 90 68 64 74 64 55 67 62 66 65 57 97 78 77 77 63 52 57 64 71 100 104 84 73 63 58
143 139 135 131 115 103 94 85 63 68 68 68 67 54 36 43 74 85 81 78 80 72 53 69 81 75 69 54 63 64 57 75 68 50 43 49 54 79 97 103 93 74 64
154 149 147 151 140 116 103 105 95 79 72 77 89 91 72 71 67 72 68 68 63 68 61 59 65 73 56 74 68 47 34 57 80 66 44 51 53 58 82 94 95 94 76
162 158 155 159 147 130 124 122 118 110 105 86 52 47 38 58 63 84 86 90 82 70 55 56 62 52 20 57 95 95 52 14 13 67 63 58 55 50 54 70 76 81 81
168 168 162 157 152 146 141 115 106 88 80 84 62 34 26 45 57 57 78 88 101 97 86 66 66 60 28 10 53 97 108 116 331 1 54 65 61 50 47 55 63 64 73
172 168 163 161 160 156 149 152 154 150 150 133 125 125 59 52 54 48 65 80 90 97 96 69 68 50 53 17 358 12 90 139 135 27 356 47 77 67 55 57 59 61 66
164 162 166 160 157 155 155 157 161 156 145 132 126 124 104 71 62 47 46 65 77 85 91 76 59 37 47 49 20 0 13 17 45 120 89 351 46 61 68 71 74 72 69
157 160 168 155 152 148 154 158 166 148 140 134 134 137 127 116 104 95 63 60 80 85 87 89 91 66 44 23 18 35 55 43 6 47 79 56 82 81 80 79 84 95 93